{"data":{"norad_id":40015,"intl_designator":"2014-033F","name":"HODOYOSHI-3","alt_names":[],"object_type":"PAYLOAD","status":"ACTIVE","operator":null,"country":"JPN","launch_date":"2014-06-19","launch_site_code":"DLS","launch_vehicle":null,"mission":null,"orbit_class":"UNKNOWN","rcs_meters":0.3517,"size_class":null,"mass_kg":null,"dimensions":null,"purposes":["earth_obs"],"wikipedia_slug":null,"has_3d_model":false,"image_url":null,"decayed_at":null,"tle_current":{"epoch":"2026-05-25T00:16:32.718720Z","epoch_age_seconds":70233,"freshness":"FRESH","line1":"1 40015U 14033F   26145.01148980  .00000845  00000+0  10335-3 0  9991","line2":"2 40015  97.6400 308.9889 0034306  71.9682 288.5266 14.85333099644187","mean_motion":14.85333099,"eccentricity":0.0034306,"inclination_deg":97.64,"raan_deg":308.9889,"arg_perigee_deg":71.9682,"mean_anomaly_deg":288.5266,"bstar":0.00010335,"rev_number":64418,"period_min":96.947950663018,"perigee_km":588.55830361544,"apogee_km":636.52274022885,"semimajor_km":6990.6775219221,"source":"CELESTRAK","updated_at":"2026-05-25T13:38:12.785158Z"}}}